Location: Feigenhofen
(48.4939°N, 10.7793°E)
Time: 12:32:13
(UTC+00:00)

ATLAS 5 CENTAUR R/B - Visible Passes

Search period start: 26 September 2022 00:00
Search period end: 06 October 2022 00:00
Orbit: 352 x 13868 km, 60.9° (Epoch: 24 September)

Date Brightness Start Highest point End Pass type
(mag) Time Alt. Az. Time Alt. Az. Time Alt. Az.
26 Sep 7.5 01:20:35 10° SSW 03:11:00 87° SE 03:37:44 10° NE visible
26 Sep 8.0 23:01:37 10° SSE 00:37:33 54° ESE 01:11:09 10° NE visible
27 Sep 6.9 03:43:40 10° SW 05:23:43 68° NNW 05:41:19 10° ENE visible
27 Sep 8.3 21:15:46 10° ESE 22:11:52 25° E 22:40:55 10° NE visible
28 Sep 7.5 00:57:25 10° SSW 02:47:42 85° SE 03:15:14 10° NE visible
28 Sep 8.0 22:40:21 10° SSE 00:14:33 52° ESE 00:48:28 10° NE visible
29 Sep 7.0 03:18:01 10° SW 05:00:22 69° NNW 05:18:45 10° ENE visible
29 Sep 8.3 20:57:30 10° ESE 21:49:32 23° E 22:17:32 10° NE visible
30 Sep 7.5 00:54:07 21° SSW 02:24:14 83° SE 02:52:35 10° NE visible
30 Sep 8.1 22:40:09 21° SSE 23:51:26 50° ESE 00:25:36 10° NE visible
01 Oct 7.0 03:01:09 14° SW 04:36:51 71° NNW 04:56:02 10° ENE visible
01 Oct 8.3 20:39:27 10° ESE 21:27:06 21° E 21:53:51 10° NE visible
02 Oct 7.6 00:45:25 30° S 02:00:37 80° ESE 02:29:46 10° NE visible
02 Oct 8.1 22:28:59 25° SE 23:28:12 48° E 00:02:35 10° NE visible
03 Oct 7.0 02:49:39 20° SW 04:13:08 73° NNW 04:33:10 10° NE visible
03 Oct 8.3 20:21:41 10° ESE 21:04:35 19° ENE 21:29:49 10° NE visible
04 Oct 7.6 00:32:33 35° S 01:36:51 78° ESE 02:06:48 10° NE visible
04 Oct 8.1 22:15:07 28° SE 23:04:53 45° E 23:39:22 10° NE visible
05 Oct 7.1 02:35:35 26° SW 03:49:15 74° NW 04:10:09 10° NE visible
05 Oct 8.3 20:04:17 10° E 20:42:00 17° ENE 21:05:22 10° NE visible
